Weather History for Miami, FL

Change the Weather History Date:

Thursday, February 14, 2013

  Actual Average Record
Temperature  
Mean Temperature 75 °F 70 °F  
Max Temperature 87 °F 78 °F 89 °F (1948)
Min Temperature 63 °F 62 °F 29 °F (1899)
Degree Days  
Heating Degree Days 0 1  
Month to date heating degree days 0 14  
Since 1 July heating degree days 20 104  
Cooling Degree Days 10 6  
Month to date cooling degree days 98 78  
Year to date cooling degree days 367 229  
Growing Degree Days 25 (Base 50)    
Moisture  
Dew Point 68 °F    
Average Humidity 76    
Maximum Humidity 100    
Minimum Humidity 51    
Precipitation  
Precipitation 0.37 in 0.09 in 1.58 in (1977)
Month to date precipitation 0.37 1.13  
Year to date precipitation 0.91 2.75  
Snow  
Snow 0.00 in - - ()
Month to date snowfall 0.0  
Since 1 July snowfall 0.0  
Snow Depth 0.00 in    
Sea Level Pressure  
Sea Level Pressure 29.97 in    
Wind  
Wind Speed 8 mph (SW)    
Max Wind Speed 21 mph    
Max Gust Speed 26 mph    
Visibility 9 miles    
Events Rain    
T = Trace of Precipitation, MM = Missing Value Source: NWS Daily Summary

Daily Weather History Graph

Daily Weather History Graph

Search for Another Location

Airport:

Trip Planner

Search our weather history database for the weather conditions in past years. The results will help you decide how hot, cold, wet, or windy it might be!

Date:

Astronomy

Feb. 14, 2013 Rise Set
Actual Time 6:56 AM EST 6:14 PM EST
Civil Twilight 6:33 AM EST 6:37 PM EST
Nautical Twilight 6:06 AM EST 7:04 PM EST
Astronomical Twilight 5:39 AM EST 7:31 PM EST
Moon 9:31 AM EST (2/14) 10:39 PM EST (2/14)
Length of Visible Light 12h 04m
Length of Day
11h 17m
Waxing Crescent, 21% of the Moon is Illuminated
Feb 14
Waxing Crescent
Feb 17
First Quarter
Feb 25
Full
Mar 4
Last Quarter
Mar 11
New

Hourly Weather History & Observations

Time (EST) Temp. Heat Index Dew Point Humidity Pressure Visibility Wind Dir Wind Speed Gust Speed Precip Events Conditions
12:53 AM 72.0 °F - 69.1 °F 91% 29.99 in 10.0 mi South 3.5 mph - N/A   Scattered Clouds
1:53 AM 73.0 °F - 69.1 °F 87% 29.97 in 9.0 mi South 5.8 mph - N/A   Scattered Clouds
2:53 AM 72.0 °F - 70.0 °F 93% 29.95 in 9.0 mi South 4.6 mph - N/A   Scattered Clouds
3:53 AM 72.0 °F - 69.1 °F 91% 29.94 in 10.0 mi SSE 3.5 mph - N/A   Clear
4:53 AM 72.0 °F - 70.0 °F 93% 29.94 in 10.0 mi Calm Calm - N/A   Partly Cloudy
5:53 AM 72.0 °F - 70.0 °F 93% 29.95 in 9.0 mi Calm Calm - N/A   Partly Cloudy
6:53 AM 72.0 °F - 71.1 °F 97% 29.96 in 8.0 mi Calm Calm - N/A   Mostly Cloudy
7:32 AM 73.4 °F - 71.6 °F 94% 29.98 in 10.0 mi Calm Calm - N/A   Mostly Cloudy
7:51 AM 73.4 °F - 71.6 °F 94% 29.98 in 10.0 mi Calm Calm - N/A   Mostly Cloudy
7:53 AM 73.9 °F - 72.0 °F 93% 29.99 in 10.0 mi Calm Calm - N/A   Mostly Cloudy
8:12 AM 75.2 °F - 73.4 °F 94% 29.98 in 10.0 mi Calm Calm - 0.01 in   Mostly Cloudy
8:53 AM 75.9 °F - 73.0 °F 91% 29.99 in 10.0 mi South 4.6 mph - 0.01 in   Mostly Cloudy
9:53 AM 77.0 °F - 71.1 °F 82% 30.01 in 10.0 mi West 6.9 mph - N/A   Mostly Cloudy
9:57 AM 75.2 °F - 71.6 °F 89% 30.01 in 10.0 mi WNW 6.9 mph - N/A   Mostly Cloudy
10:27 AM 78.8 °F - 71.6 °F 78% 30.01 in 10.0 mi Variable 5.8 mph - N/A   Mostly Cloudy
10:53 AM 80.1 °F 83.2 °F 70.0 °F 71% 30.01 in 10.0 mi Variable 3.5 mph - N/A   Mostly Cloudy
11:53 AM 84.0 °F 86.3 °F 66.0 °F 55% 29.98 in 10.0 mi SW 10.4 mph 16.1 mph N/A   Mostly Cloudy
12:53 PM 84.9 °F 86.6 °F 64.9 °F 51% 29.95 in 10.0 mi Variable 5.8 mph - N/A   Mostly Cloudy
1:53 PM 84.0 °F 87.0 °F 68.0 °F 58% 29.91 in 10.0 mi SSW 15.0 mph 23.0 mph 0.00 in   Mostly Cloudy
2:53 PM 84.0 °F 86.3 °F 66.0 °F 55% 29.89 in 10.0 mi SSW 18.4 mph 25.3 mph N/A   Mostly Cloudy
3:53 PM 82.9 °F 85.0 °F 66.0 °F 56% 29.90 in 10.0 mi SSW 18.4 mph 24.2 mph N/A   Mostly Cloudy
4:53 PM 81.0 °F 83.8 °F 68.0 °F 65% 29.91 in 10.0 mi SSW 16.1 mph 24.2 mph N/A   Mostly Cloudy
5:53 PM 81.0 °F 84.1 °F 69.1 °F 67% 29.93 in 10.0 mi SW 12.7 mph 17.3 mph N/A   Mostly Cloudy
6:53 PM 79.0 °F - 70.0 °F 74% 29.93 in 10.0 mi WSW 8.1 mph - 0.00 in   Overcast
7:26 PM 71.6 °F - 64.4 °F 78% 29.94 in 10.0 mi NNW 9.2 mph 18.4 mph N/A   Overcast
7:53 PM 69.1 °F - 64.9 °F 87% 29.97 in 4.0 mi NNW 15.0 mph 20.7 mph 0.04 in Rain Rain
8:53 PM 64.9 °F - 62.1 °F 90% 30.00 in 7.0 mi NNW 10.4 mph 18.4 mph 0.06 in Rain Light Rain
9:48 PM 64.4 °F - 62.6 °F 94% 30.02 in 10.0 mi NNW 10.4 mph 17.3 mph 0.03 in   Overcast
9:53 PM 64.0 °F - 62.1 °F 93% 30.02 in 10.0 mi Variable 6.9 mph 17.3 mph 0.03 in   Overcast
10:41 PM 64.4 °F - 60.8 °F 88% 30.03 in 7.0 mi Variable 5.8 mph - 0.01 in Rain Light Rain
10:53 PM 63.0 °F - 61.0 °F 93% 30.04 in 7.0 mi NNW 5.8 mph - 0.08 in Rain Heavy Rain
11:53 PM 63.0 °F - 61.0 °F 93% 30.02 in 5.0 mi Variable 6.9 mph - 0.14 in Rain Light Rain